Content
SEND FEEDBACK

Daily
Averages
Monthly
Summary
United States of America

FORT LEE, NEW JERSEY


Home > North America > United States > New Jersey
Elevation: 128 feet     Latitude: 40 46N     Longitude: 073 58W

WEATHER
 
SELECT A DAY
Number of Records: 147,991;   Date Range: 11/1/95 - 7/20/14
 
SHARE

PRINT THIS DATA

[ ← Previous Day ]
WEATHER ALMANAC - NOVEMBER 12, 2013
[ Next Day → ]
[ °C ]   °F
Weather ElementAverageHighLow
Temperature37.7 °F51.1 °F (1:51 am)30.9 °F (11:51 pm)
Dewpoint23.1 °F33.1 °F (6:32 am)12.9 °F (7:51 pm)
Humidity57.8 %83 % (6:32 am)39 % (1:51 pm)
Barometer30.14 in30.29 in (8:51 pm)29.94 in (2:51 am)
Wind Speed6.6 mph12.7 mph (7:46 am)
Wind Gust26.5 mph (6:51 am)
Weather ElementAverage
Visibility8.6 mi
Wind DirectionESE (98.3 °)

Weather ElementTotal
Precipitation0.07 in
Heating Degree Days24 (Base 65)
Averaged from 29 records on November 12, 2013
WEATHER CONDITIONS BREAKOUT
WIND DIRECTION BREAKOUT
WEATHER BY HOUR - NOVEMBER 12, 2013
[ °C ]   °F
Local TimeTemperatureDewpointHumidityBarometerVisibilityWind DirectionWind SpeedGust SpeedPrecipitationEventsConditions
1:51 AM51.1 °F32.0 °F48 %29.95 in10.0 miVariable4.6 mphOvercast
2:51 AM51.1 °F32.0 °F48 %29.94 in10.0 miCalmOvercast
3:51 AM51.1 °F30.9 °F46 %29.94 in10.0 miVariable3.5 mphOvercast
4:51 AM48.9 °F32.0 °F52 %29.97 in10.0 miWNW (300°)10.4 mph18.4 mphOvercast
5:51 AM39.9 °F32.0 °F73 %30.02 in10.0 miVariable5.8 mph19.6 mph0.00 inRainLight Rain
6:32 AM37.9 °F33.1 °F83 %30.08 in10.0 miVariable3.5 mph0.01 inRainLight Rain
6:51 AM36.0 °F30.9 °F82 %30.08 in4.0 miNorth (350°)10.4 mph26.5 mph0.02 inSnowLight Snow
7:26 AM35.1 °F30.0 °F82 %30.12 in2.5 miVariable6.9 mph16.1 mph0.01 inSnowLight Snow
7:34 AM35.1 °F30.0 °F82 %30.12 in6.0 miVariable6.9 mph0.01 inSnowLight Snow
7:46 AM35.6 °F28.4 °F75 %30.13 in6.0 miNorth (350°)12.7 mph18.4 mph0.01 inSnowLight Snow
7:51 AM35.1 °F28.0 °F76 %30.11 in6.0 miNorth0.01 inSnowLight Snow
8:05 AM35.1 °F28.0 °F76 %30.14 in1.5 miNW (320°)9.2 mph17.3 mph0.00 inSnowLight Snow
8:36 AM34.0 °F27.0 °F75 %30.15 in3.0 miVariable6.9 mph0.00 inSnowLight Snow
8:51 AM35.1 °F26.1 °F70 %30.12 in10.0 miVariable4.6 mph0.00 inOvercast
9:51 AM36.0 °F25.0 °F64 %30.14 in10.0 miVariable4.6 mphOvercast
10:51 AM37.0 °F23.0 °F57 %30.14 in10.0 miVariable5.8 mph19.6 mphOvercast
11:51 AM37.9 °F19.0 °F47 %30.14 in10.0 miCalmPartly Cloudy
12:51 PM37.9 °F19.0 °F47 %30.14 in10.0 miNorthPartly Cloudy
1:51 PM37.0 °F14.0 °F39 %30.17 in10.0 miNW (310°)12.7 mph24.2 mphClear
2:51 PM37.0 °F15.1 °F41 %30.18 in10.0 miNorthClear
3:51 PM37.0 °F14.0 °F39 %30.19 in10.0 miNW (310°)8.1 mph18.4 mphClear
4:51 PM37.0 °F15.1 °F41 %30.21 in10.0 miWNW (300°)8.1 mphClear
5:51 PM36.0 °F14.0 °F41 %30.22 in10.0 miNorthClear
6:51 PM35.1 °F14.0 °F42 %30.26 in10.0 miVariable5.8 mphClear
7:51 PM34.0 °F12.9 °F42 %30.27 in10.0 miVariable3.5 mphClear
8:51 PM33.1 °F15.1 °F48 %30.29 in10.0 miVariable5.8 mphClear
9:51 PM33.1 °F16.0 °F50 %30.29 in10.0 miWNW (300°)9.2 mphClear
10:51 PM32.0 °F16.0 °F52 %30.29 in10.0 miNW (310°)9.2 mph18.4 mphClear
11:51 PM30.9 °F17.1 °F57 %30.29 in10.0 miNorthClear
Hourly data recorded from KNYC, located miles away from Fort Lee, New Jersey







STORIES FROM OUR PARTNERS